• En España
  • Lista de países
  • Para 7 días
  • Temperatura del agua
  • Mapa Satelital
  • El tiempo en el mapa
  • Informadores
  • user-avatar
    Iniciar sesión

    Tiempo cada hora Dobczyce

    Hoy, 20 Septiembre, Jueves

    Tiempo Temperatura Precipitaciones Viento Presión Humedad
    00:00 +17°C° 0 mm 2 mps 744 mmHg 72%
    01:00 +16°C° 0 mm 1 mps 743 mmHg 72%
    02:00 +16°C° 0 mm 1 mps 744 mmHg 73%
    03:00 +16°C° 0 mm 1 mps 744 mmHg 73%
    04:00 +16°C° 0 mm 1 mps 744 mmHg 74%
    05:00 +18°C° 0 mm 1 mps 744 mmHg 72%
    06:00 +19°C° 0 mm 1 mps 744 mmHg 70%
    07:00 +19°C° 0 mm 1 mps 744 mmHg 63%
    08:00 +22°C° 0 mm 1 mps 744 mmHg 56%
    09:00 +24°C° 0 mm 1 mps 744 mmHg 49%
    10:00 +26°C° 0 mm 1 mps 744 mmHg 42%
    11:00 +27°C° 0 mm 1 mps 744 mmHg 39%
    12:00 +28°C° 0 mm 1 mps 744 mmHg 36%
    13:00 +29°C° 0 mm 1 mps 744 mmHg 34%
    14:00 +28°C° 0 mm 1 mps 743 mmHg 36%
    15:00 +28°C° 0 mm 1 mps 743 mmHg 38%
    16:00 +28°C° 0 mm 1 mps 743 mmHg 40%
    17:00 +25°C° 0 mm 1 mps 743 mmHg 45%
    18:00 +23°C° 0 mm 1 mps 743 mmHg 51%
    19:00 +21°C° 0 mm 1 mps 742 mmHg 56%
    20:00 +20°C° 0 mm 1 mps 742 mmHg 58%
    21:00 +19°C° 0 mm 1 mps 742 mmHg 61%
    22:00 +19°C° 0 mm 1 mps 742 mmHg 63%
    23:00 +18°C° 0 mm 1 mps 742 mmHg 64%

    Mañana, 21 Septiembre, Viernes

    Tiempo Temperatura Precipitaciones Viento Presión Humedad
    00:00 +18°C° 0 mm 1 mps 742 mmHg 66%
    01:00 +18°C° 0 mm 1 mps 742 mmHg 67%
    02:00 +16°C° 0 mm 1 mps 742 mmHg 68%
    03:00 +16°C° 0 mm 1 mps 741 mmHg 69%
    04:00 +16°C° 0 mm 1 mps 741 mmHg 70%
    05:00 +18°C° 0 mm 1 mps 741 mmHg 68%
    06:00 +18°C° 0 mm 2 mps 741 mmHg 67%
    07:00 +18°C° 0 mm 2 mps 741 mmHg 65%
    08:00 +21°C° 0 mm 2 mps 741 mmHg 57%
    09:00 +24°C° 0 mm 3 mps 741 mmHg 49%
    10:00 +27°C° 0 mm 3 mps 741 mmHg 41%
    11:00 +28°C° 0 mm 3 mps 740 mmHg 39%
    12:00 +28°C° 0 mm 4 mps 740 mmHg 38%
    13:00 +29°C° 0 mm 4 mps 739 mmHg 36%
    14:00 +28°C° 0 mm 4 mps 739 mmHg 38%
    15:00 +28°C° 0 mm 4 mps 738 mmHg 41%
    16:00 +27°C° 0 mm 4 mps 738 mmHg 43%
    17:00 +25°C° 0 mm 3 mps 738 mmHg 49%
    18:00 +22°C° 0 mm 3 mps 738 mmHg 55%
    19:00 +20°C° 0 mm 3 mps 738 mmHg 61%
    20:00 +19°C° 0 mm 3 mps 737 mmHg 61%
    21:00 +19°C° 0 mm 3 mps 737 mmHg 61%
    22:00 +19°C° 0 mm 3 mps 737 mmHg 61%
    23:00 +19°C° 0 mm 3 mps 738 mmHg 60%

    Pasado mañana, 22 Septiembre, Sábado

    Tiempo Temperatura Precipitaciones Viento Presión Humedad
    00:00 +19°C° 0 mm 3 mps 738 mmHg 60%
    01:00 +19°C° 0 mm 4 mps 738 mmHg 60%
    02:00 +18°C° 0.1 mm 4 mps 739 mmHg 66%
    03:00 +15°C° 0.1 mm 4 mps 740 mmHg 73%
    04:00 +14°C° 0.1 mm 4 mps 740 mmHg 80%
    05:00 +14°C° 0.2 mm 3 mps 741 mmHg 81%
    06:00 +13°C° 0.2 mm 3 mps 741 mmHg 82%
    07:00 +14°C° 0.2 mm 2 mps 742 mmHg 83%
    08:00 +14°C° 0.6 mm 2 mps 742 mmHg 82%
    09:00 +14°C° 0.6 mm 2 mps 742 mmHg 80%
    10:00 +14°C° 0.6 mm 2 mps 743 mmHg 78%
    11:00 +14°C° 0 mm 3 mps 743 mmHg 71%
    12:00 +16°C° 0 mm 3 mps 743 mmHg 64%
    13:00 +17°C° 0 mm 3 mps 742 mmHg 57%
    14:00 +17°C° 0 mm 4 mps 742 mmHg 53%
    15:00 +17°C° 0 mm 4 mps 742 mmHg 49%
    16:00 +18°C° 0 mm 4 mps 742 mmHg 45%
    17:00 +15°C° 0 mm 4 mps 742 mmHg 49%
    18:00 +14°C° 0 mm 3 mps 742 mmHg 54%
    19:00 +12°C° 0 mm 3 mps 743 mmHg 58%
    20:00 +12°C° 0 mm 3 mps 743 mmHg 60%
    21:00 +12°C° 0 mm 3 mps 743 mmHg 62%
    22:00 +11°C° 0 mm 3 mps 743 mmHg 63%
    23:00 +11°C° 0 mm 3 mps 744 mmHg 65%

    23 Septiembre, Domingo

    Tiempo Temperatura Precipitaciones Viento Presión Humedad
    00:00 +10°C° 0 mm 3 mps 744 mmHg 68%
    01:00 +10°C° 0 mm 3 mps 744 mmHg 70%
    02:00 +9°C° 0 mm 3 mps 744 mmHg 72%
    03:00 +9°C° 0 mm 3 mps 744 mmHg 74%
    04:00 +9°C° 0 mm 3 mps 744 mmHg 76%
    05:00 +9°C° 0 mm 3 mps 744 mmHg 73%
    06:00 +10°C° 0 mm 3 mps 744 mmHg 71%
    07:00 +11°C° 0 mm 3 mps 744 mmHg 68%
    08:00 +13°C° 0 mm 3 mps 744 mmHg 61%
    09:00 +14°C° 0 mm 4 mps 744 mmHg 54%
    10:00 +16°C° 0 mm 5 mps 744 mmHg 47%
    11:00 +16°C° 0 mm 5 mps 743 mmHg 47%
    12:00 +17°C° 0 mm 5 mps 743 mmHg 47%
    13:00 +17°C° 0 mm 5 mps 742 mmHg 48%
    14:00 +17°C° 0 mm 4 mps 742 mmHg 50%
    15:00 +17°C° 0 mm 4 mps 741 mmHg 52%
    16:00 +17°C° 0 mm 4 mps 741 mmHg 55%
    17:00 +16°C° 0 mm 3 mps 740 mmHg 60%
    18:00 +14°C° 0 mm 3 mps 740 mmHg 65%
    19:00 +14°C° 0 mm 2 mps 740 mmHg 70%
    20:00 +13°C° 0 mm 3 mps 739 mmHg 72%
    21:00 +13°C° 0 mm 3 mps 738 mmHg 73%
    22:00 +13°C° 0 mm 4 mps 737 mmHg 74%
    23:00 +13°C° 0.4 mm 4 mps 736 mmHg 75%

    24 Septiembre, Lunes

    Tiempo Temperatura Precipitaciones Viento Presión Humedad
    00:00 +14°C° 0.4 mm 5 mps 734 mmHg 76%
    01:00 +14°C° 0.4 mm 5 mps 733 mmHg 77%
    02:00 +15°C° 1.3 mm 6 mps 732 mmHg 77%
    03:00 +16°C° 1.3 mm 7 mps 730 mmHg 77%
    04:00 +17°C° 1.3 mm 7 mps 729 mmHg 77%
    05:00 +16°C° 2.4 mm 8 mps 729 mmHg 78%
    06:00 +16°C° 2.4 mm 9 mps 728 mmHg 79%
    07:00 +16°C° 2.4 mm 10 mps 728 mmHg 80%
    08:00 +13°C° 0.3 mm 11 mps 730 mmHg 79%
    09:00 +11°C° 0.3 mm 11 mps 732 mmHg 77%
    10:00 +8°C° 0.3 mm 12 mps 733 mmHg 76%
    11:00 +8°C° 0.1 mm 12 mps 735 mmHg 73%
    12:00 +9°C° 0.1 mm 11 mps 737 mmHg 70%
    13:00 +9°C° 0.1 mm 11 mps 738 mmHg 67%
    14:00 +9°C° 0.1 mm 10 mps 739 mmHg 66%
    15:00 +10°C° 0.1 mm 9 mps 740 mmHg 64%
    16:00 +10°C° 0.1 mm 9 mps 741 mmHg 63%
    17:00 +10°C° 0.1 mm 8 mps 741 mmHg 64%
    18:00 +9°C° 0.1 mm 7 mps 742 mmHg 65%
    19:00 +8°C° 0.1 mm 6 mps 743 mmHg 66%
    20:00 +8°C° 0 mm 5 mps 744 mmHg 69%
    21:00 +7°C° 0 mm 5 mps 744 mmHg 71%
    22:00 +7°C° 0 mm 4 mps 745 mmHg 74%
    23:00 +6°C° 0 mm 4 mps 746 mmHg 76%

    25 Septiembre, Martes

    Tiempo Temperatura Precipitaciones Viento Presión Humedad
    00:00 +6°C° 0 mm 4 mps 746 mmHg 77%
    01:00 +7°C° 0 mm 3 mps 746 mmHg 79%
    02:00 +5°C° 0 mm 3 mps 747 mmHg 81%
    03:00 +5°C° 0 mm 3 mps 747 mmHg 83%
    04:00 +4°C° 0 mm 3 mps 748 mmHg 85%
    05:00 +5°C° 0 mm 4 mps 748 mmHg 83%
    06:00 +5°C° 0 mm 4 mps 749 mmHg 81%
    07:00 +5°C° 0 mm 5 mps 749 mmHg 79%
    08:00 +7°C° 0.1 mm 5 mps 750 mmHg 70%
    09:00 +8°C° 0.1 mm 6 mps 750 mmHg 62%
    10:00 +9°C° 0.1 mm 6 mps 751 mmHg 54%
    11:00 +10°C° 0.2 mm 6 mps 751 mmHg 54%
    12:00 +10°C° 0.2 mm 6 mps 751 mmHg 53%
    13:00 +10°C° 0.2 mm 6 mps 751 mmHg 53%
    14:00 +10°C° 0.2 mm 6 mps 751 mmHg 53%
    15:00 +10°C° 0.2 mm 5 mps 751 mmHg 54%
    16:00 +10°C° 0.2 mm 5 mps 751 mmHg 54%
    17:00 +8°C° 0 mm 4 mps 752 mmHg 57%
    18:00 +8°C° 0 mm 3 mps 752 mmHg 61%
    19:00 +7°C° 0 mm 3 mps 752 mmHg 65%
    20:00 +5°C° 0 mm 3 mps 753 mmHg 66%
    21:00 +5°C° 0 mm 3 mps 753 mmHg 68%
    22:00 +5°C° 0 mm 3 mps 753 mmHg 69%
    23:00 +5°C° 0 mm 3 mps 753 mmHg 69%
    Mostrar más